sat.trackr.live / text

‹ back to catalog

KINEIS-5D

NORAD 62082 · 2024-219B

PAYLOAD ACTIVE UNKNOWN

§ Identity

Operator
Country
FR
Launch date
2024-11-25
Launch site
RLLB
Launch vehicle
Mass (kg)
RCS (m²)

External: N2YO · Heavens-Above · Gunter

§ Orbital elements

Epoch: 2026-05-25T04:31:11.015616Z

Period
97.80 min
Inclination
97.9131°
Eccentricity
0.0004705
Mean motion
14.72397387 rev/d
Perigee alt
650.1 km
Apogee alt
656.7 km
Semi-major
7,031.6 km
B*
1.3275e-4
RAAN
304.6688°
Arg perigee
4.4547°
Mean anomaly
355.6702°
Rev number
8,037

§ Raw data

KINEIS-5D1 62082U 24219B   26145.18832194  .00000792  00000+0  13275-3 0  99982 62082  97.9131 304.6688 0004705   4.4547 355.6702 14.72397387 80372

JSON: /api/v1/satellites/62082 · /tle

For live sub-satellite position, see the globe view (requires WebGL).

§ Visibility from observer

Set your observer location to see the next 7 days of passes ≥ 10°. The values pass through the URL so the page stays shareable.

No JS? Fill the form by hand. The geolocation button needs JavaScript.

§ Radio — SatNOGS DB

ModeDescriptionDownlinkUplink
FM S-band telemetry 2.265 GHz

1 transmitter · refreshed weekly from db.satnogs.org